This is the latest recevied weather packets stored in our database for station/object EA1IDU-12. If no packets are shown the sender has not sent any weather packets the latest 10 day(s).
| Time | Temp. | Humidity | Pressure | Rain* | Wind** | Luminosity | Snow |
|---|---|---|---|---|---|---|---|
| 1787928907 | 22.22° C | 59% | 1029.4 hPa | - | - | - | - |
| 1787928006 | 23.33° C | 58% | 1029.5 hPa | - | - | - | - |
| 1787927106 | 22.22° C | 61% | 1029.4 hPa | - | - | - | - |
| 1787926206 | 22.22° C | 62% | 1029.5 hPa | - | - | - | - |
| 1787925306 | 23.33° C | 63% | 1029.4 hPa | - | - | - | - |
| 1787924406 | 23.89° C | 63% | 1029.5 hPa | - | - | - | - |
| 1787923505 | 23.89° C | 61% | 1029.4 hPa | - | - | - | - |
| 1787922605 | 23.33° C | 64% | 1029.3 hPa | - | - | - | - |
| 1787921705 | 22.78° C | 65% | 1029.4 hPa | - | - | - | - |
| 1787920805 | 22.78° C | 66% | 1029.4 hPa | - | - | - | - |
| 1787919905 | 22.78° C | 68% | 1029.4 hPa | - | - | - | - |
| 1787919005 | 22.22° C | 71% | 1029.2 hPa | - | - | - | - |
| 1787918104 | 21.67° C | 74% | 1029.2 hPa | - | - | - | - |
| 1787917204 | 21.11° C | 75% | 1029.3 hPa | - | - | - | - |
| 1787916304 | 21.11° C | 76% | 1029.3 hPa | - | - | - | - |
| 1787915404 | 20.56° C | 76% | 1029.4 hPa | - | - | - | - |
| 1787914504 | 20° C | 76% | 1029.7 hPa | - | - | - | - |
| 1787913604 | 19.44° C | 77% | 1029.5 hPa | - | - | - | - |
| 1787912704 | 18.89° C | 76% | 1029.4 hPa | - | - | - | - |
| 1787911803 | 18.89° C | 80% | 1029.4 hPa | - | - | - | - |
| 1787910903 | 18.33° C | 86% | 1029.7 hPa | - | - | - | - |
| 1787910003 | 17.78° C | 86% | 1029.7 hPa | - | - | - | - |
| 1787909103 | 17.22° C | 89% | 1029.6 hPa | - | - | - | - |
| 1787908203 | 15.56° C | 88% | 1029.4 hPa | - | - | - | - |
| 1787907303 | 15° C | 90% | 1029.5 hPa | - | - | - | - |
* Rain since midnight (hover to see other rain measurements)
** Current wind speed in m/s (hover to see current wind gust speed)